Dewpoint
-5 -6 -6 -6 -7 -7 -6 -6 -7 -9 -11 -14 -16 -17 -17 -16 -13 -10 -6 -1 -2 -1 3 3 8 9 10 10 12 13 11 14 14 14 12 12 12 13 15 15 15 15 16 15 16
-5 -5 -6 -6 -7 -7 -7 -6 -7 -8 -9 -12 -15 -17 -18 -17 -15 -12 -11 -5 -1 -1 1 3 4 5 7 5 8 9 15 12 11 12 12 11 12 11 15 15 16 17 16 16 16
-8 -4 -4 -6 -7 -7 -8 -7 -7 -8 -8 -10 -13 -16 -18 -18 -15 -13 -12 -8 -2 -3 -1 -1 1 3 1 2 5 10 9 8 9 11 11 11 11 11 13 16 15 17 18 17 16
-10 -5 -3 -4 -6 -7 -7 -8 -8 -8 -9 -10 -12 -14 -17 -18 -7 -5 -5 -12 -4 -2 -2 -5 -2 -1 -0 1 2 8 7 8 8 11 12 12 11 11 13 12 13 16 16 17 17
-11 -7 -3 -3 -5 -6 -7 -8 -9 -9 -9 -10 -10 -13 -16 -18 -16 -8 -7 -9 -2 -1 -2 -5 -2 0 2 0 2 6 4 3 6 10 12 12 11 10 11 13 14 16 17 17 16
-11 -9 -4 -3 -5 -6 -7 -7 -9 -9 -9 -10 -10 -11 -13 -16 -18 -12 -8 -9 -7 -3 -3 -3 -2 -0 -1 -2 -0 2 0 1 4 9 12 12 12 11 15 15 16 17 17 17 16
-11 -9 -3 -3 -6 -6 -6 -7 -8 -9 -9 -10 -10 -10 -11 -19 -16 -9 -8 -11 -12 -8 -5 -5 -7 -6 -3 -2 -2 -1 2 3 10 12 12 12 12 11 15 16 17 16 17 17 17
-12 -8 -3 -4 -6 -6 -6 -8 -8 -9 -9 -10 -10 -9 -13 -17 -17 -6 -8 -6 -6 -6 -8 -6 -6 -5 -4 -3 -0 2 2 4 2 12 12 11 12 11 15 16 16 16 16 17 17
-11 -5 -3 -6 -6 -7 -8 -8 -8 -8 -8 -9 -10 -9 -11 -11 -16 -11 -7 -8 -7 -7 -7 -7 -6 -5 -3 -1 1 2 3 3 2 8 12 12 9 10 14 15 16 16 16 16 17
-10 -3 -4 -6 -7 -8 -7 -7 0 2 -2 -3 -5 -8 -13 -6 -7 -9 -6 -8 -8 -10 -9 -6 -3 -1 -0 0 6 3 2 3 3 0 5 6 7 5 12 13 14 16 16 16 17
-6 -3 -6 -6 -9 -1 2 1 1 0 1 -0 -7 -8 -7 -5 -4 -10 -9 -10 -9 -10 -8 -7 -3 2 2 1 1 2 3 3 -1 -2 -3 -4 -2 -2 0 10 12 14 16 16 17
-4 -3 -7 -7 -8 2 2 1 1 1 2 -1 -2 -2 -3 -3 -3 -5 -9 -9 -8 -7 -9 -8 -3 -3 -1 -0 1 1 2 1 -3 -4 -6 -4 -1 0 8 10 11 12 14 15 16
-3 -4 -8 -7 -5 2 1 2 1 2 2 -2 -1 -1 -5 -5 -3 -4 -7 -9 -9 -8 -9 -6 -4 -9 -6 -4 -2 -1 -0 -2 -5 -6 -7 -2 -2 -1 4 10 11 11 12 13 14
-3 -5 -8 -7 -0 2 2 1 1 1 -2 -2 -2 -3 -3 -1 -3 -4 -9 -10 -11 -9 -9 -9 -10 -9 -9 -7 -6 1 -6 -8 -8 -8 -7 -5 -5 2 3 5 8 10 11 13 14
-3 -6 -8 -7 -1 2 2 0 1 1 -2 -4 -4 -3 -2 -5 -8 -9 -8 -11 -10 -10 -10 -11 -9 -9 -7 -8 -9 -5 -9 -10 -9 -8 -6 -3 -0 -5 3 1 -3 -1 9 11 13
-3 -7 -7 -5 -5 2 2 -0 1 -5 1 -3 -3 -3 -2 -4 -6 -9 -9 -9 -10 -9 -9 -10 -10 -11 -10 -10 -9 -11 -10 -9 -7 -6 -5 -5 0 -5 -2 3 -0 -1 6 10 12
-6 -5 -4 -4 -3 2 2 -1 -3 1 -2 -1 -4 -4 -5 -6 -7 -7 -7 -8 -8 -6 -6 -8 -9 -11 -12 -10 -11 -11 -10 -5 -3 -4 -5 -3 1 -4 -5 -3 -1 1 5 9 12
-3 -1 -2 -4 -1 -1 -1 -1 3 1 2 -1 -5 -6 -4 -7 -6 -6 -6 -6 -8 -9 -7 -7 -8 -10 -11 -10 -10 -9 -10 -6 -1 -3 -6 -3 -5 -9 -6 -6 3 5 5 8 10
1 1 -1 -2 1 1 1 -6 -1 1 0 1 -5 -4 -4 -6 -5 -6 -5 -6 -7 -9 -6 -6 -6 -11 -11 -12 -11 -9 -8 -11 -9 -8 -6 -7 -5 -7 -2 -4 -2 3 5 8 10
4 2 -1 1 2 2 -2 -4 0 -0 -0 -1 -1 -4 -2 -4 -4 -5 -3 -6 -2 -9 -10 -7 -5 -9 -11 -11 -11 -10 -11 -9 -7 -3 -3 -5 -3 -5 -1 -3 -4 -3 -5 1 11
6 5 0 -0 2 -1 -5 -3 0 0 0 1 -0 -2 -3 -0 -3 -5 -3 -4 0 -2 -9 -10 -8 -6 -9 -9 -9 -9 -9 -9 -8 -7 -5 -4 -6 -5 -2 -3 -4 -6 -4 -0 1
6 6 1 3 3 3 3 2 1 1 1 1 0 -2 -2 -2 -0 -2 -1 -1 3 3 1 -9 -9 -5 -6 -10 -10 -9 -9 -9 -6 -2 -5 -5 -6 -7 -1 3 2 1 1 4 5
5 6 2 3 6 5 3 2 2 1 0 -0 -1 -3 -3 -1 1 -2 -2 -1 2 5 6 -5 -5 -0 -4 -8 -8 -8 -10 -10 -10 -9 -1 -5 -6 -8 -4 3 5 7 6 5 1
6 6 5 4 3 3 2 1 1 -0 -0 -1 -0 -0 0 1 0 2 4 2 3 6 4 -2 -2 1 2 -1 -0 -0 -1 -8 -7 -3 -4 -5 -4 -4 -2 4 5 5 6 6 5
3 3 2 5 3 1 1 1 1 1 -1 -1 -0 -0 1 4 3 2 1 2 3 5 5 4 6 2 3 1 3 3 2 2 -0 -0 -1 -2 -2 -2 -1 5 5 6 6 8 7
1 2 0 1 1 1 -0 1 1 -0 -1 -0 -0 -1 -1 1 1 0 -1 2 4 5 5 4 6 7 6 4 5 5 4 4 3 3 -2 -2 1 -3 -1 6 6 6 7 9 10
-2 -1 -1 -1 0 0 -0 0 -0 -2 -1 -1 -1 -1 0 -1 -1 -2 -1 -1 -1 2 5 7 5 7 7 4 5 5 3 2 3 2 -1 2 1 5 5 6 6 5 8 9 9
Wind_Speed
5 4 4 3 3 3 3 3 3 2 2 2 3 4 5 5 5 5 3 3 6 6 6 6 7 5 2 2 2 1 2 3 2 3 4 4 3 3 3 10 4 5 6 13 27
6 4 4 3 3 3 3 3 3 2 2 2 3 4 5 5 6 5 4 7 8 7 5 6 8 5 1 0 1 0 1 3 3 4 7 1 3 5 5 11 4 10 10 23 27
6 5 4 4 3 3 2 2 3 3 2 3 3 4 4 3 2 3 7 8 8 9 6 6 3 2 1 1 3 1 3 3 8 11 9 5 3 4 6 8 10 13 23 27 27
6 5 5 4 3 2 2 2 3 3 3 3 3 4 4 2 5 6 5 14 12 12 9 6 5 2 2 2 4 4 8 6 5 6 2 3 3 5 9 4 4 14 23 30 27
7 6 5 5 4 3 3 3 3 3 3 3 3 3 3 4 2 4 5 17 17 14 9 6 4 2 3 1 2 7 8 11 13 9 3 3 2 2 5 4 10 18 25 30 28
7 6 5 6 5 4 4 4 4 4 3 3 3 3 3 3 4 3 7 18 19 14 10 8 1 2 6 2 2 6 15 16 7 3 1 3 2 1 4 11 18 21 25 28 28
7 6 5 6 6 5 5 4 4 4 3 3 3 4 6 6 5 6 11 14 14 13 9 8 5 4 4 6 6 6 6 3 9 2 1 2 10 8 11 17 21 22 23 26 25
6 6 5 6 6 5 5 5 4 4 4 4 4 5 4 6 11 10 10 10 11 10 8 4 5 5 4 6 3 5 2 5 7 3 3 2 10 1 17 20 19 24 24 25 27
6 5 6 6 5 5 5 5 4 3 4 4 4 4 3 3 8 12 12 7 8 7 7 6 4 3 1 2 2 6 3 6 7 1 1 3 13 2 14 17 19 23 26 28 27
5 5 5 6 5 4 4 2 1 2 4 4 6 3 2 3 5 10 15 10 6 5 5 5 2 2 2 3 6 2 4 3 6 6 6 9 18 11 13 20 22 24 24 26 29
6 5 6 5 4 2 1 2 2 2 4 4 1 2 2 1 1 8 13 12 8 3 5 2 5 8 9 4 4 2 3 9 7 8 9 8 15 19 13 21 22 24 27 28 31
4 5 5 5 2 4 4 3 5 3 4 4 10 16 14 8 2 7 11 9 6 8 2 3 10 7 2 6 4 2 6 10 5 6 6 12 16 9 5 12 23 24 26 29 25
4 4 4 3 3 5 8 7 5 6 1 2 2 4 4 8 4 7 13 8 3 7 6 10 2 6 5 4 5 6 5 8 8 9 3 8 6 7 1 7 10 23 28 28 31
4 4 2 2 5 6 2 4 5 4 2 2 1 2 5 5 2 6 13 9 2 9 6 7 2 5 4 6 6 14 4 5 7 7 5 4 4 5 7 10 9 16 23 25 29
4 3 2 2 3 6 1 4 4 2 3 3 3 4 9 3 4 2 11 4 7 6 6 4 3 6 12 14 8 9 4 5 3 3 4 2 3 5 5 10 10 8 12 23 28
4 3 3 1 5 8 2 3 1 2 3 3 4 4 5 1 1 4 4 3 5 4 2 5 1 4 3 4 8 4 3 1 2 2 5 2 4 5 5 4 10 11 9 10 20
4 2 2 2 4 6 3 1 1 2 2 3 2 1 2 4 4 4 6 6 5 4 6 2 10 5 4 7 3 5 4 4 6 6 7 3 3 6 11 8 10 17 10 4 13
1 2 2 4 6 3 2 1 3 1 2 1 2 3 3 0 1 1 4 6 2 3 2 2 3 8 7 13 6 8 10 6 10 8 7 4 4 6 6 13 13 11 6 5 10
5 8 7 6 6 3 2 2 2 2 2 4 0 3 2 2 1 2 3 3 5 11 8 4 4 1 6 4 9 6 6 1 3 1 4 3 5 12 6 7 7 7 3 3 7
9 12 10 8 4 2 2 2 2 3 3 1 1 0 2 2 2 1 2 2 1 7 3 3 6 2 2 5 3 5 9 4 1 6 9 5 4 6 12 11 13 14 15 11 6
6 5 5 7 3 2 2 1 3 5 5 2 1 3 1 1 1 1 1 1 2 2 6 4 4 2 2 6 8 4 4 3 2 2 6 7 5 2 5 7 11 15 18 10 13
3 3 5 4 1 2 1 1 3 4 2 3 2 2 3 3 0 1 2 1 4 1 0 2 1 5 9 2 3 1 5 5 5 6 2 2 5 2 3 6 7 17 21 16 10
4 4 3 5 2 2 2 2 2 4 4 2 1 3 1 2 1 1 1 1 7 2 1 5 3 4 3 4 3 4 4 4 3 2 7 5 3 5 7 8 11 15 21 18 16
4 2 2 3 4 1 2 2 4 3 2 4 3 2 1 1 2 1 1 2 5 3 3 3 2 5 6 2 0 3 4 4 5 5 6 5 5 10 7 11 18 20 21 23 17
3 2 2 2 2 1 1 2 2 4 2 5 3 7 3 1 1 1 1 4 1 3 2 2 3 2 5 4 4 3 3 5 8 4 7 4 9 9 5 9 13 19 21 22 20
3 2 2 2 1 2 1 2 1 2 3 2 3 7 4 0 1 0 2 2 3 2 1 0 3 1 5 1 5 7 8 10 13 9 13 8 11 8 4 4 10 16 19 17 20
7 4 2 2 1 2 2 1 3 2 3 5 3 6 5 3 6 10 10 13 11 4 4 3 4 4 11 5 6 13 12 14 11 10 11 10 11 3 3 9 12 20 14 15 21
Wind_Direction
5 9 4 357 354 357 7 4 13 1 321 276 263 262 260 255 261 250 239 193 183 170 157 153 149 155 179 339 291 329 341 339 1 308 334 144 132 97 129 146 123 168 150 169 162
356 1 1 1 353 357 345 349 348 351 339 301 277 267 260 258 258 257 206 186 185 173 156 166 177 177 167 6 247 175 160 241 257 243 288 270 164 126 128 153 109 93 127 156 165
352 351 355 357 353 352 327 319 321 330 330 312 290 276 270 277 270 175 185 188 183 171 154 165 176 189 22 221 237 170 243 233 264 230 256 251 230 148 155 187 206 178 155 160 167
344 347 349 350 350 346 316 288 295 310 318 310 290 276 267 196 164 165 191 196 182 174 178 176 170 189 208 206 226 273 254 248 279 223 179 236 164 160 199 156 224 187 172 165 169
338 344 345 340 341 332 315 287 273 286 297 303 295 286 266 227 203 169 190 184 183 184 193 197 190 220 290 188 221 257 292 315 279 295 328 107 243 264 210 234 158 163 167 171 176
337 338 341 337 334 329 311 295 276 270 280 288 298 293 258 243 213 169 140 179 189 191 200 202 242 292 298 263 255 240 293 300 329 297 123 277 241 230 154 154 150 164 173 178 180
335 336 341 335 330 327 308 297 291 273 263 273 273 281 255 221 200 171 143 168 187 195 210 218 237 254 310 304 323 266 315 357 28 66 106 238 259 229 165 165 162 172 178 184 189
335 335 336 333 332 328 306 296 287 267 248 250 262 277 241 192 202 183 154 157 173 184 200 209 218 258 252 304 331 13 36 3 8 72 14 289 289 17 175 174 180 181 183 191 195
339 337 333 335 337 329 300 288 278 256 231 234 257 253 243 203 195 199 189 169 180 195 216 218 191 213 258 334 356 23 349 349 348 55 106 232 295 337 184 197 189 193 194 195 198
338 338 337 339 343 331 304 275 221 240 229 242 247 279 241 145 158 189 200 194 163 159 156 175 159 179 134 216 275 307 315 345 318 323 300 279 278 274 221 213 214 203 201 204 205
333 339 340 347 358 25 3 144 311 292 229 220 164 310 224 83 247 202 199 198 190 172 199 84 213 210 216 201 158 179 287 306 308 311 312 305 291 291 254 225 219 214 207 209 212
328 338 339 351 30 96 122 101 64 330 313 262 247 255 252 273 276 178 178 169 176 208 155 191 231 214 164 187 202 248 301 309 297 299 319 316 308 325 203 226 220 218 219 215 213
327 339 339 357 142 118 86 63 14 348 278 305 263 257 211 194 205 181 176 159 156 191 198 228 166 166 206 189 216 244 265 293 293 321 252 311 289 318 279 241 222 222 226 221 212
325 334 334 25 147 159 90 14 356 337 25 49 144 134 159 149 144 178 176 174 131 217 171 246 190 211 212 234 215 255 205 267 297 328 314 341 306 297 329 308 226 226 221 220 217
321 325 307 196 162 159 116 342 334 323 115 5 98 143 164 175 133 119 186 176 166 162 194 194 187 199 228 235 201 261 158 286 306 274 290 186 248 284 326 302 320 355 229 222 215
317 315 297 238 180 180 201 351 317 238 90 77 123 153 163 178 106 123 153 148 126 133 245 258 246 231 227 185 191 121 195 106 110 219 259 46 262 268 267 258 314 333 358 221 212
315 301 264 185 155 178 219 258 215 56 327 35 31 170 169 157 188 179 159 181 193 182 231 251 233 225 190 235 191 187 220 242 236 229 258 126 232 270 283 281 277 304 307 221 205
2 78 123 140 143 161 170 167 90 47 7 10 23 86 141 91 116 108 151 173 190 149 165 292 262 189 170 219 227 205 228 229 240 240 255 171 233 266 260 303 290 274 263 228 201
102 94 85 120 126 111 129 97 103 189 311 341 67 95 85 113 123 158 200 218 217 198 210 190 252 224 203 185 211 163 202 297 171 90 256 270 260 279 282 268 309 300 327 303 212
119 92 74 115 109 95 90 139 228 230 313 251 106 6 126 42 164 55 184 139 91 211 241 230 260 232 69 152 59 244 140 177 212 225 249 219 264 259 290 316 342 328 329 334 290
128 93 81 108 75 50 96 223 277 266 228 224 164 128 134 126 104 81 69 106 18 90 182 168 236 179 245 213 198 160 188 62 138 263 255 259 250 255 306 305 306 306 312 324 299
110 90 131 37 60 38 81 270 315 309 35 258 243 228 186 184 201 195 152 55 358 178 338 179 205 247 243 78 342 212 197 193 242 200 228 312 256 172 342 332 310 306 319 333 330
87 99 129 25 90 54 332 294 279 331 348 1 269 238 194 161 223 223 322 4 18 51 159 180 200 289 206 141 138 224 198 186 148 155 187 202 227 196 331 348 359 340 336 335 330
116 123 70 62 84 65 11 1 349 340 263 344 334 85 134 120 37 169 305 311 358 62 68 173 214 250 264 308 298 230 183 179 225 203 172 223 270 299 338 347 345 344 349 343 334
69 85 113 134 110 90 289 337 323 352 1 3 82 45 5 163 123 189 297 315 223 86 95 262 281 253 267 262 244 258 249 208 226 243 228 236 212 269 329 335 326 328 338 341 336
84 97 90 95 22 172 169 201 215 339 309 10 64 0 355 268 74 175 351 239 295 316 74 91 282 279 289 269 247 267 260 257 240 252 247 250 250 257 270 335 328 332 337 351 350
56 54 83 22 98 199 208 160 149 350 249 252 43 341 300 286 307 291 273 264 263 278 286 270 235 227 266 300 281 265 247 234 233 219 223 219 247 168 277 333 332 323 326 337 343
Height
1513 1512 1512 1511 1511 1511 1511 1510 1510 1510 1510 1509 1509 1509 1510 1510 1511 1512 1513 1514 1515 1516 1517 1518 1519 1520 1520 1520 1520 1520 1519 1519 1516 1514 1508 1509 1511 1514 1515 1517 1519 1521 1522 1523 1526
1512 1512 1511 1511 1510 1510 1510 1510 1510 1509 1509 1509 1509 1509 1509 1510 1510 1510 1512 1513 1515 1516 1517 1518 1519 1520 1521 1521 1519 1519 1522 1516 1510 1509 1506 1508 1509 1512 1516 1518 1520 1520 1522 1523 1526
1512 1511 1511 1510 1510 1510 1509 1509 1509 1508 1508 1508 1508 1508 1509 1509 1510 1509 1510 1512 1515 1517 1518 1519 1519 1520 1520 1521 1519 1518 1518 1511 1508 1507 1506 1508 1510 1510 1513 1517 1516 1517 1520 1523 1527
1512 1510 1510 1510 1510 1509 1509 1508 1508 1507 1507 1507 1507 1507 1508 1509 1512 1509 1510 1512 1514 1516 1518 1519 1520 1521 1521 1520 1519 1517 1510 1511 1507 1505 1504 1506 1509 1509 1511 1512 1514 1514 1517 1522 1527
1511 1510 1509 1509 1509 1508 1508 1507 1507 1506 1506 1506 1506 1506 1507 1509 1509 1509 1509 1511 1514 1517 1518 1519 1519 1520 1518 1519 1519 1518 1509 1506 1504 1507 1507 1508 1509 1509 1510 1510 1512 1515 1519 1521 1526
1510 1509 1508 1508 1507 1507 1506 1506 1506 1506 1506 1506 1506 1506 1507 1509 1508 1508 1509 1510 1514 1516 1518 1518 1519 1519 1518 1517 1519 1515 1509 1505 1503 1504 1507 1508 1509 1509 1510 1510 1512 1516 1519 1523 1525
1508 1507 1507 1507 1507 1506 1505 1505 1505 1505 1505 1505 1505 1506 1506 1507 1506 1508 1509 1512 1515 1517 1518 1518 1519 1520 1519 1515 1515 1513 1510 1505 1505 1506 1507 1508 1506 1505 1507 1511 1512 1515 1520 1524 1527
1508 1507 1506 1506 1505 1505 1504 1503 1503 1504 1504 1504 1504 1505 1503 1504 1506 1508 1510 1512 1515 1516 1518 1518 1519 1520 1519 1517 1515 1513 1511 1514 1507 1507 1509 1509 1508 1504 1505 1508 1512 1513 1517 1521 1524
1506 1506 1505 1505 1504 1503 1502 1501 1502 1502 1503 1503 1504 1504 1502 1503 1505 1507 1509 1512 1514 1515 1517 1518 1519 1519 1518 1516 1518 1518 1525 1521 1512 1509 1509 1510 1505 1503 1505 1507 1507 1512 1514 1516 1521
1505 1505 1504 1503 1502 1502 1500 1500 1501 1501 1502 1502 1503 1506 1502 1502 1503 1504 1507 1510 1513 1515 1517 1518 1518 1517 1517 1517 1530 1528 1525 1524 1524 1509 1509 1508 1502 1499 1501 1502 1503 1507 1511 1515 1516
1504 1504 1503 1502 1501 1501 1500 1500 1504 1503 1501 1500 1501 1500 1500 1501 1501 1503 1506 1509 1512 1514 1514 1516 1516 1518 1513 1516 1516 1518 1522 1523 1518 1509 1508 1504 1500 1489 1493 1496 1497 1500 1504 1507 1509
1503 1502 1501 1501 1500 1500 1500 1500 1500 1503 1500 1497 1498 1498 1500 1501 1502 1503 1506 1509 1511 1513 1516 1517 1517 1513 1515 1517 1515 1516 1520 1517 1513 1509 1512 1502 1495 1487 1488 1489 1491 1495 1498 1499 1507
1502 1501 1500 1500 1499 1501 1500 1501 1500 1500 1500 1497 1497 1497 1498 1501 1501 1502 1505 1506 1510 1513 1514 1515 1513 1514 1515 1515 1516 1514 1519 1518 1518 1511 1508 1506 1497 1489 1486 1488 1487 1488 1488 1492 1495
1501 1500 1499 1499 1502 1500 1501 1501 1500 1499 1498 1497 1496 1497 1499 1499 1501 1501 1503 1507 1510 1510 1514 1513 1512 1513 1514 1514 1514 1516 1511 1514 1515 1515 1521 1509 1519 1495 1484 1481 1481 1481 1483 1487 1489
1499 1498 1498 1498 1499 1500 1502 1500 1499 1499 1509 1496 1497 1498 1498 1500 1501 1501 1502 1504 1506 1509 1512 1510 1511 1513 1513 1510 1511 1511 1510 1513 1514 1515 1516 1512 1515 1493 1489 1479 1471 1473 1477 1478 1481
1497 1496 1496 1497 1498 1500 1500 1500 1501 1502 1515 1496 1496 1497 1498 1499 1499 1500 1502 1504 1506 1508 1509 1508 1509 1508 1505 1506 1507 1509 1511 1514 1517 1515 1521 1515 1514 1499 1487 1481 1473 1471 1475 1474 1477
1495 1495 1495 1496 1498 1499 1499 1500 1501 1504 1497 1499 1497 1495 1495 1497 1498 1498 1499 1502 1505 1515 1513 1508 1504 1503 1505 1508 1508 1509 1510 1522 1525 1523 1522 1519 1519 1496 1479 1476 1478 1472 1472 1472 1472
1494 1493 1494 1495 1496 1497 1498 1500 1507 1502 1500 1496 1497 1496 1496 1497 1498 1498 1500 1502 1505 1505 1512 1513 1512 1500 1499 1500 1503 1506 1504 1516 1536 1529 1516 1519 1513 1492 1476 1476 1473 1471 1469 1469 1470
1493 1493 1494 1494 1496 1497 1499 1502 1501 1501 1498 1497 1496 1497 1499 1497 1497 1498 1500 1499 1497 1499 1507 1510 1509 1496 1497 1497 1497 1506 1508 1500 1514 1530 1523 1508 1499 1482 1473 1472 1470 1467 1468 1468 1469
1493 1494 1495 1496 1497 1498 1498 1506 1502 1500 1498 1497 1499 1498 1501 1498 1497 1497 1499 1496 1496 1497 1499 1497 1507 1492 1493 1495 1499 1495 1498 1508 1511 1528 1530 1511 1513 1494 1477 1473 1473 1469 1468 1470 1468
1494 1495 1498 1497 1498 1498 1500 1503 1502 1497 1498 1497 1496 1497 1498 1497 1497 1498 1499 1496 1495 1496 1497 1497 1500 1496 1492 1490 1491 1499 1499 1507 1503 1509 1510 1514 1499 1476 1480 1478 1474 1469 1466 1469 1466
1493 1496 1498 1499 1500 1504 1502 1503 1501 1497 1497 1496 1496 1495 1495 1496 1496 1497 1497 1494 1495 1494 1495 1496 1496 1500 1490 1489 1489 1488 1488 1489 1501 1514 1513 1508 1495 1477 1479 1478 1475 1469 1465 1465 1464
1494 1498 1499 1499 1500 1502 1503 1501 1501 1498 1497 1495 1495 1495 1495 1495 1501 1498 1496 1494 1494 1493 1493 1495 1499 1500 1491 1491 1491 1489 1490 1490 1494 1497 1508 1501 1490 1474 1473 1472 1471 1469 1465 1463 1460
1495 1498 1501 1500 1502 1503 1503 1501 1500 1499 1499 1498 1497 1495 1496 1497 1499 1499 1496 1493 1493 1493 1494 1495 1496 1491 1498 1495 1494 1493 1490 1492 1485 1491 1496 1490 1481 1469 1470 1471 1468 1466 1465 1460 1460
1495 1501 1501 1501 1503 1504 1505 1505 1502 1501 1499 1498 1497 1499 1500 1500 1499 1499 1497 1494 1492 1493 1494 1493 1495 1499 1492 1492 1492 1489 1489 1490 1490 1483 1487 1477 1482 1469 1470 1472 1471 1468 1464 1460 1456
1497 1501 1502 1504 1505 1505 1506 1503 1503 1503 1502 1498 1499 1499 1498 1499 1499 1500 1499 1498 1494 1492 1491 1494 1496 1498 1494 1491 1493 1493 1487 1487 1484 1485 1484 1480 1478 1468 1470 1471 1470 1468 1464 1461 1458
1500 1501 1502 1505 1505 1504 1503 1503 1504 1505 1501 1501 1501 1501 1499 1498 1499 1499 1499 1497 1495 1497 1494 1494 1491 1497 1498 1490 1493 1492 1480 1477 1474 1472 1470 1477 1465 1467 1466 1467 1467 1465 1463 1461 1458